Location: Canazei
(46.4667°N, 11.7667°E)
Time: 22:40:13
(UTC+00:00)

Envisat - Pass Details

Date: 29 September 2021
Orbit: 764 x 766 km, 98.2° (Epoch: 20 October)

Event Time Altitude Azimuth Distance (km) Brightness Sun altitude
Rises 03:08:29 0° 29° (NNE) 3,241 7.0 -21.2°
Reaches altitude 10° 03:11:38 10° 49° (NE) 2,309 6.5 -20.7°
Maximum altitude 03:14:54 17° 89° (E) 1,860 5.9 -20.2°
Drops below altitude 10° 03:18:10 10° 130° (SE) 2,297 5.9 -19.6°
Sets 03:21:16 0° 150° (SSE) 3,217 6.4 -19.1°
